Year,Month,Day,Hour,Minute,Value (Times are PST for temperature in C)
2014,08,17,00,00,15.20
2014,08,17,00,01,15.20
2014,08,17,00,02,15.20
2014,08,17,00,03,15.20
2014,08,17,00,04,15.20
2014,08,17,00,05,15.20
2014,08,17,00,06,15.20
2014,08,17,00,07,15.20
2014,08,17,00,08,15.20
2014,08,17,00,09,15.20
2014,08,17,00,10,15.10
2014,08,17,00,11,15.10
2014,08,17,00,12,15.10
2014,08,17,00,13,15.10
2014,08,17,00,14,15.10
2014,08,17,00,15,15.10
2014,08,17,00,16,15.10
2014,08,17,00,17,15.10
2014,08,17,00,18,15.10
2014,08,17,00,19,15.10
2014,08,17,00,20,15.10
2014,08,17,00,21,15.00
2014,08,17,00,22,15.00
2014,08,17,00,23,15.00
2014,08,17,00,24,15.00
2014,08,17,00,25,15.00
2014,08,17,00,26,15.00
2014,08,17,00,27,14.90
2014,08,17,00,28,14.90
2014,08,17,00,29,14.90
2014,08,17,00,30,14.90
2014,08,17,00,31,14.90
2014,08,17,00,32,14.90
2014,08,17,00,33,14.90
2014,08,17,00,34,14.90
2014,08,17,00,35,14.90
2014,08,17,00,36,14.90
2014,08,17,00,37,14.90
2014,08,17,00,38,15.00
2014,08,17,00,39,15.00
2014,08,17,00,40,14.90
2014,08,17,00,41,14.90
2014,08,17,00,42,14.90
2014,08,17,00,43,14.90
2014,08,17,00,44,14.90
2014,08,17,00,45,14.90
2014,08,17,00,46,14.90
2014,08,17,00,47,14.90
2014,08,17,00,48,14.90
2014,08,17,00,49,14.90
2014,08,17,00,50,14.90
2014,08,17,00,51,14.90
2014,08,17,00,52,14.90
2014,08,17,00,53,14.90
2014,08,17,00,54,14.90
2014,08,17,00,55,14.80
2014,08,17,00,56,14.80
2014,08,17,00,57,14.80
2014,08,17,00,58,14.80
2014,08,17,00,59,14.80
2014,08,17,01,00,14.80
2014,08,17,01,01,14.80
2014,08,17,01,02,14.80
2014,08,17,01,03,14.80
2014,08,17,01,04,14.80
2014,08,17,01,05,14.80
2014,08,17,01,06,14.70
2014,08,17,01,07,14.70
2014,08,17,01,08,14.70
2014,08,17,01,09,14.70
2014,08,17,01,10,14.70
2014,08,17,01,11,14.60
2014,08,17,01,12,14.60
2014,08,17,01,13,14.60
2014,08,17,01,14,14.60
2014,08,17,01,15,14.60
2014,08,17,01,16,14.50
2014,08,17,01,17,14.50
2014,08,17,01,18,14.50
2014,08,17,01,19,14.50
2014,08,17,01,20,14.40
2014,08,17,01,21,14.40
2014,08,17,01,22,14.40
2014,08,17,01,23,14.40
2014,08,17,01,24,14.40
2014,08,17,01,25,14.40
2014,08,17,01,26,14.30
2014,08,17,01,27,14.30
2014,08,17,01,28,14.30
2014,08,17,01,29,14.30
2014,08,17,01,30,14.30
2014,08,17,01,31,14.30
2014,08,17,01,32,14.30
2014,08,17,01,33,14.30
2014,08,17,01,34,14.30
2014,08,17,01,35,14.30
2014,08,17,01,36,14.30
2014,08,17,01,37,14.30
2014,08,17,01,38,14.30
2014,08,17,01,39,14.30
2014,08,17,01,40,14.30
2014,08,17,01,41,14.30
2014,08,17,01,42,14.30
2014,08,17,01,43,14.30
2014,08,17,01,44,14.30
2014,08,17,01,45,14.30
2014,08,17,01,46,14.30
2014,08,17,01,47,14.30
2014,08,17,01,48,14.30
2014,08,17,01,49,14.30
2014,08,17,01,50,14.30
2014,08,17,01,51,14.20
2014,08,17,01,52,14.20
2014,08,17,01,53,14.20
2014,08,17,01,54,14.20
2014,08,17,01,55,14.20
2014,08,17,01,56,14.20
2014,08,17,01,57,14.20
2014,08,17,01,58,14.20
2014,08,17,01,59,14.20
2014,08,17,02,00,14.20
2014,08,17,02,01,14.10
2014,08,17,02,02,14.10
2014,08,17,02,03,14.10
2014,08,17,02,04,14.10
2014,08,17,02,05,14.10
2014,08,17,02,06,14.10
2014,08,17,02,07,14.10
2014,08,17,02,08,14.10
2014,08,17,02,09,14.10
2014,08,17,02,10,14.10
2014,08,17,02,11,14.10
2014,08,17,02,12,14.10
2014,08,17,02,13,14.10
2014,08,17,02,14,14.10
2014,08,17,02,15,14.10
2014,08,17,02,16,14.10
2014,08,17,02,17,14.10
2014,08,17,02,18,14.10
2014,08,17,02,19,14.10
2014,08,17,02,20,14.10
2014,08,17,02,21,14.00
2014,08,17,02,22,14.00
2014,08,17,02,23,14.00
2014,08,17,02,24,14.00
2014,08,17,02,25,14.00
2014,08,17,02,26,14.00
2014,08,17,02,27,13.90
2014,08,17,02,28,13.90
2014,08,17,02,29,13.90
2014,08,17,02,30,13.90
2014,08,17,02,31,13.90
2014,08,17,02,32,13.90
2014,08,17,02,33,13.90
2014,08,17,02,34,13.90
2014,08,17,02,35,13.90
2014,08,17,02,36,13.90
2014,08,17,02,37,13.90
2014,08,17,02,38,14.00
2014,08,17,02,39,13.90
2014,08,17,02,40,13.90
2014,08,17,02,41,14.00
2014,08,17,02,42,13.90
2014,08,17,02,43,13.90
2014,08,17,02,44,13.90
2014,08,17,02,45,13.90
2014,08,17,02,46,13.90
2014,08,17,02,47,13.90
2014,08,17,02,48,13.90
2014,08,17,02,49,13.90
2014,08,17,02,50,13.90
2014,08,17,02,51,13.90
2014,08,17,02,52,13.90
2014,08,17,02,53,13.90
2014,08,17,02,54,13.90
2014,08,17,02,55,13.90
2014,08,17,02,56,13.90
2014,08,17,02,57,13.90
2014,08,17,02,58,13.90
2014,08,17,02,59,13.90
2014,08,17,03,00,13.90
2014,08,17,03,01,13.90
2014,08,17,03,02,13.90
2014,08,17,03,03,13.90
2014,08,17,03,04,13.90
2014,08,17,03,05,13.90
2014,08,17,03,06,13.90
2014,08,17,03,07,13.90
2014,08,17,03,08,13.90
2014,08,17,03,09,14.00
2014,08,17,03,10,14.00
2014,08,17,03,11,13.90
2014,08,17,03,12,13.90
2014,08,17,03,13,13.90
2014,08,17,03,14,13.90
2014,08,17,03,15,13.90
2014,08,17,03,16,13.90
2014,08,17,03,17,13.90
2014,08,17,03,18,13.90
2014,08,17,03,19,13.80
2014,08,17,03,20,13.80
2014,08,17,03,21,13.80
2014,08,17,03,22,13.80
2014,08,17,03,23,13.80
2014,08,17,03,24,13.80
2014,08,17,03,25,13.80
2014,08,17,03,26,13.80
2014,08,17,03,27,13.80
2014,08,17,03,28,13.90
2014,08,17,03,29,13.90
2014,08,17,03,30,13.90
2014,08,17,03,31,13.90
2014,08,17,03,32,13.90
2014,08,17,03,33,13.90
2014,08,17,03,34,13.90
2014,08,17,03,35,13.90
2014,08,17,03,36,13.90
2014,08,17,03,37,13.90
2014,08,17,03,38,13.90
2014,08,17,03,39,13.90
2014,08,17,03,40,13.90
2014,08,17,03,41,13.90
2014,08,17,03,42,13.90
2014,08,17,03,43,13.80
2014,08,17,03,44,13.90
2014,08,17,03,45,13.80
2014,08,17,03,46,13.80
2014,08,17,03,47,13.80
2014,08,17,03,48,13.80
2014,08,17,03,49,13.80
2014,08,17,03,50,13.80
2014,08,17,03,51,13.80
2014,08,17,03,52,13.80
2014,08,17,03,53,13.80
2014,08,17,03,54,13.80
2014,08,17,03,55,13.80
2014,08,17,03,56,13.80
2014,08,17,03,57,13.80
2014,08,17,03,58,13.80
2014,08,17,03,59,13.80
2014,08,17,04,00,13.80
2014,08,17,04,01,13.80
2014,08,17,04,02,13.80
2014,08,17,04,03,13.80
2014,08,17,04,04,13.80
2014,08,17,04,05,13.80
2014,08,17,04,06,13.80
2014,08,17,04,07,13.80
2014,08,17,04,08,13.80
2014,08,17,04,09,13.80
2014,08,17,04,10,13.80
2014,08,17,04,11,13.70
2014,08,17,04,12,13.70
2014,08,17,04,13,13.70
2014,08,17,04,14,13.70
2014,08,17,04,15,13.70
2014,08,17,04,16,13.70
2014,08,17,04,17,13.70
2014,08,17,04,18,13.70
2014,08,17,04,19,13.70
2014,08,17,04,20,13.70
2014,08,17,04,21,13.70
2014,08,17,04,22,13.70
2014,08,17,04,23,13.60
2014,08,17,04,24,13.60
2014,08,17,04,25,13.60
2014,08,17,04,26,13.60
2014,08,17,04,27,13.60
2014,08,17,04,28,13.60
2014,08,17,04,29,13.60
2014,08,17,04,30,13.60
2014,08,17,04,31,13.60
2014,08,17,04,32,13.60
2014,08,17,04,33,13.60
2014,08,17,04,34,13.60
2014,08,17,04,35,13.60
2014,08,17,04,36,13.60
2014,08,17,04,37,13.60
2014,08,17,04,38,13.60
2014,08,17,04,39,13.60
2014,08,17,04,40,13.60
2014,08,17,04,41,13.60
2014,08,17,04,42,13.60
2014,08,17,04,43,13.60
2014,08,17,04,44,13.60
2014,08,17,04,45,13.60
2014,08,17,04,46,13.60
2014,08,17,04,47,13.60
2014,08,17,04,48,13.60
2014,08,17,04,49,13.60
2014,08,17,04,50,13.60
2014,08,17,04,51,13.50
2014,08,17,04,52,13.50
2014,08,17,04,53,13.50
2014,08,17,04,54,13.50
2014,08,17,04,55,13.40
2014,08,17,04,56,13.40
2014,08,17,04,57,13.40
2014,08,17,04,58,13.40
2014,08,17,04,59,13.40
2014,08,17,05,00,13.40
2014,08,17,05,01,13.30
2014,08,17,05,02,13.30
2014,08,17,05,03,13.30
2014,08,17,05,04,13.30
2014,08,17,05,05,13.30
2014,08,17,05,06,13.30
2014,08,17,05,07,13.30
2014,08,17,05,08,13.30
2014,08,17,05,09,13.30
2014,08,17,05,10,13.30
2014,08,17,05,11,13.30
2014,08,17,05,12,13.30
2014,08,17,05,13,13.30
2014,08,17,05,14,13.30
2014,08,17,05,15,13.30
2014,08,17,05,16,13.30
2014,08,17,05,17,13.30
2014,08,17,05,18,13.30
2014,08,17,05,19,13.30
2014,08,17,05,20,13.30
2014,08,17,05,21,13.30
2014,08,17,05,22,13.30
2014,08,17,05,23,13.30
2014,08,17,05,24,13.30
2014,08,17,05,25,13.30
2014,08,17,05,26,13.30
2014,08,17,05,27,13.30
2014,08,17,05,28,13.30
2014,08,17,05,29,13.20
2014,08,17,05,30,13.20
2014,08,17,05,31,13.20
2014,08,17,05,32,13.20
2014,08,17,05,33,13.20
2014,08,17,05,34,13.20
2014,08,17,05,35,13.20
2014,08,17,05,36,13.20
2014,08,17,05,37,13.20
2014,08,17,05,38,13.20
2014,08,17,05,39,13.20
2014,08,17,05,40,13.20
2014,08,17,05,41,13.30
2014,08,17,05,42,13.30
2014,08,17,05,43,13.30
2014,08,17,05,44,13.30
2014,08,17,05,45,13.30
2014,08,17,05,46,13.30
2014,08,17,05,47,13.30
2014,08,17,05,48,13.20
2014,08,17,05,49,13.20
2014,08,17,05,50,13.20
2014,08,17,05,51,13.20
2014,08,17,05,52,13.20
2014,08,17,05,53,13.20
2014,08,17,05,54,13.20
2014,08,17,05,55,13.20
2014,08,17,05,56,13.20
2014,08,17,05,57,13.20
2014,08,17,05,58,13.20
2014,08,17,05,59,13.20
2014,08,17,06,00,13.20
2014,08,17,06,01,13.20
2014,08,17,06,02,13.20
2014,08,17,06,03,13.20
2014,08,17,06,04,13.20
2014,08,17,06,05,13.20
2014,08,17,06,06,13.20
2014,08,17,06,07,13.20
2014,08,17,06,08,13.20
2014,08,17,06,09,13.20
2014,08,17,06,10,13.20
2014,08,17,06,11,13.20
2014,08,17,06,12,13.20
2014,08,17,06,13,13.10
2014,08,17,06,14,13.10
2014,08,17,06,15,13.10
2014,08,17,06,16,13.10
2014,08,17,06,17,13.10
2014,08,17,06,18,13.10
2014,08,17,06,19,13.10
2014,08,17,06,20,13.10
2014,08,17,06,21,13.10
2014,08,17,06,22,13.10
2014,08,17,06,23,13.10
2014,08,17,06,24,13.10
2014,08,17,06,25,13.10
2014,08,17,06,26,13.10
2014,08,17,06,27,13.10
2014,08,17,06,28,13.10
2014,08,17,06,29,13.10
2014,08,17,06,30,13.10
2014,08,17,06,31,13.10
2014,08,17,06,32,13.10
2014,08,17,06,33,13.10
2014,08,17,06,34,13.00
2014,08,17,06,35,13.00
2014,08,17,06,36,13.00
2014,08,17,06,37,13.00
2014,08,17,06,38,13.10
2014,08,17,06,39,13.10
2014,08,17,06,40,13.10
2014,08,17,06,41,13.10
2014,08,17,06,42,13.10
2014,08,17,06,43,13.10
2014,08,17,06,44,13.10
2014,08,17,06,45,13.10
2014,08,17,06,46,13.10
2014,08,17,06,47,13.10
2014,08,17,06,48,13.10
2014,08,17,06,49,13.10
2014,08,17,06,50,13.10
2014,08,17,06,51,13.10
2014,08,17,06,52,13.10
2014,08,17,06,53,13.10
2014,08,17,06,54,13.10
2014,08,17,06,55,13.20
2014,08,17,06,56,13.20
2014,08,17,06,57,13.20
2014,08,17,06,58,13.20
2014,08,17,06,59,13.20
2014,08,17,07,00,13.20
2014,08,17,07,01,13.20
2014,08,17,07,02,13.30
2014,08,17,07,03,13.30
2014,08,17,07,04,13.30
2014,08,17,07,05,13.30
2014,08,17,07,06,13.40
2014,08,17,07,07,13.40
2014,08,17,07,08,13.40
2014,08,17,07,09,13.50
2014,08,17,07,10,13.60
2014,08,17,07,11,13.60
2014,08,17,07,12,13.70
2014,08,17,07,13,13.70
2014,08,17,07,14,13.70
2014,08,17,07,15,13.80
2014,08,17,07,16,13.80
2014,08,17,07,17,13.90
2014,08,17,07,18,13.90
2014,08,17,07,19,14.00
2014,08,17,07,20,14.00
2014,08,17,07,21,14.10
2014,08,17,07,22,14.10
2014,08,17,07,23,14.20
2014,08,17,07,24,14.20
2014,08,17,07,25,14.20
2014,08,17,07,26,14.30
2014,08,17,07,27,14.30
2014,08,17,07,28,14.30
2014,08,17,07,29,14.30
2014,08,17,07,30,14.40
2014,08,17,07,31,14.50
2014,08,17,07,32,14.50
2014,08,17,07,33,14.60
2014,08,17,07,34,14.70
2014,08,17,07,35,14.70
2014,08,17,07,36,14.80
2014,08,17,07,37,14.90
2014,08,17,07,38,14.90
2014,08,17,07,39,15.00
2014,08,17,07,40,15.00
2014,08,17,07,41,15.10
2014,08,17,07,42,15.10
2014,08,17,07,43,15.10
2014,08,17,07,44,15.10
2014,08,17,07,45,15.20
2014,08,17,07,46,15.20
2014,08,17,07,47,15.30
2014,08,17,07,48,15.30
2014,08,17,07,49,15.30
2014,08,17,07,50,15.40
2014,08,17,07,51,15.40
2014,08,17,07,52,15.50
2014,08,17,07,53,15.60
2014,08,17,07,54,15.60
2014,08,17,07,55,15.70
2014,08,17,07,56,15.80
2014,08,17,07,57,15.80
2014,08,17,07,58,15.90
2014,08,17,07,59,15.90
2014,08,17,08,00,16.00
2014,08,17,08,01,16.10
2014,08,17,08,02,16.10
2014,08,17,08,03,16.10
2014,08,17,08,04,16.20
2014,08,17,08,05,16.20
2014,08,17,08,06,16.20
2014,08,17,08,07,16.30
2014,08,17,08,08,16.30
2014,08,17,08,09,16.40
2014,08,17,08,10,16.40
2014,08,17,08,11,16.40
2014,08,17,08,12,16.40
2014,08,17,08,13,16.40
2014,08,17,08,14,16.40
2014,08,17,08,15,16.50
2014,08,17,08,16,16.50
2014,08,17,08,17,16.60
2014,08,17,08,18,16.60
2014,08,17,08,19,16.60
2014,08,17,08,20,16.70
2014,08,17,08,21,16.70
2014,08,17,08,22,16.80
2014,08,17,08,23,16.80
2014,08,17,08,24,16.80
2014,08,17,08,25,16.90
2014,08,17,08,26,16.90
2014,08,17,08,27,17.00
2014,08,17,08,28,17.10
2014,08,17,08,29,17.10
2014,08,17,08,30,17.20
2014,08,17,08,31,17.30
2014,08,17,08,32,17.30
2014,08,17,08,33,17.30
2014,08,17,08,34,17.40
2014,08,17,08,35,17.50
2014,08,17,08,36,17.50
2014,08,17,08,37,17.60
2014,08,17,08,38,17.70
2014,08,17,08,39,17.70
2014,08,17,08,40,17.80
2014,08,17,08,41,17.80
2014,08,17,08,42,17.90
2014,08,17,08,43,17.90
2014,08,17,08,44,18.00
2014,08,17,08,45,18.00
2014,08,17,08,46,18.10
2014,08,17,08,47,18.20
2014,08,17,08,48,18.30
2014,08,17,08,49,18.40
2014,08,17,08,50,18.40
2014,08,17,08,51,18.40
2014,08,17,08,52,18.50
2014,08,17,08,53,18.60
2014,08,17,08,54,18.60
2014,08,17,08,55,18.70
2014,08,17,08,56,18.70
2014,08,17,08,57,18.80
2014,08,17,08,58,18.80
2014,08,17,08,59,18.80
2014,08,17,09,00,18.80
2014,08,17,09,01,18.80
2014,08,17,09,02,18.80
2014,08,17,09,03,18.80
2014,08,17,09,04,18.80
2014,08,17,09,05,18.80
2014,08,17,09,06,18.90
2014,08,17,09,07,18.90
2014,08,17,09,08,19.00
2014,08,17,09,09,19.10
2014,08,17,09,10,19.10
2014,08,17,09,11,19.20
2014,08,17,09,12,19.30
2014,08,17,09,13,19.30
2014,08,17,09,14,19.40
2014,08,17,09,15,19.50
2014,08,17,09,16,19.50
2014,08,17,09,17,19.60
2014,08,17,09,18,19.70
2014,08,17,09,19,19.80
2014,08,17,09,20,19.80
2014,08,17,09,21,19.90
2014,08,17,09,22,19.90
2014,08,17,09,23,19.90
2014,08,17,09,24,20.00
2014,08,17,09,25,20.10
2014,08,17,09,26,20.10
2014,08,17,09,27,20.20
2014,08,17,09,28,20.20
2014,08,17,09,29,20.30
2014,08,17,09,30,20.40
2014,08,17,09,31,20.40
2014,08,17,09,32,20.40
2014,08,17,09,33,20.50
2014,08,17,09,34,20.50
2014,08,17,09,35,20.60
2014,08,17,09,36,20.60
2014,08,17,09,37,20.60
2014,08,17,09,38,20.70
2014,08,17,09,39,20.70
2014,08,17,09,40,20.80
2014,08,17,09,41,20.90
2014,08,17,09,42,21.00
2014,08,17,09,43,21.00
2014,08,17,09,44,21.10
2014,08,17,09,45,21.20
2014,08,17,09,46,21.40
2014,08,17,09,47,21.50
2014,08,17,09,48,21.60
2014,08,17,09,49,21.70
2014,08,17,09,50,21.80
2014,08,17,09,51,21.90
2014,08,17,09,52,22.10
2014,08,17,09,53,22.20
2014,08,17,09,54,22.40
2014,08,17,09,55,22.50
2014,08,17,09,56,22.60
2014,08,17,09,57,22.70
2014,08,17,09,58,22.80
2014,08,17,09,59,22.90
2014,08,17,10,00,23.00
2014,08,17,10,01,23.10
2014,08,17,10,02,23.10
2014,08,17,10,03,23.20
2014,08,17,10,04,23.20
2014,08,17,10,05,23.20
2014,08,17,10,06,23.30
2014,08,17,10,07,23.40
2014,08,17,10,08,23.40
2014,08,17,10,09,23.40
2014,08,17,10,10,23.40
2014,08,17,10,11,23.40
2014,08,17,10,12,23.40
2014,08,17,10,13,23.40
2014,08,17,10,14,23.40
2014,08,17,10,15,23.40
2014,08,17,10,16,23.40
2014,08,17,10,17,23.40
2014,08,17,10,18,23.40
2014,08,17,10,19,23.40
2014,08,17,10,20,23.40
2014,08,17,10,21,23.40
2014,08,17,10,22,23.50
2014,08,17,10,23,23.60
2014,08,17,10,24,23.70
2014,08,17,10,25,23.80
2014,08,17,10,26,23.80
2014,08,17,10,27,23.90
2014,08,17,10,28,23.90
2014,08,17,10,29,23.90
2014,08,17,10,30,23.90
2014,08,17,10,31,23.80
2014,08,17,10,32,23.70
2014,08,17,10,33,23.60
2014,08,17,10,34,23.60
2014,08,17,10,35,23.50
2014,08,17,10,36,23.50
2014,08,17,10,37,23.50
2014,08,17,10,38,23.60
2014,08,17,10,39,23.60
2014,08,17,10,40,23.70
2014,08,17,10,41,23.70
2014,08,17,10,42,23.70
2014,08,17,10,43,23.70
2014,08,17,10,44,23.70
2014,08,17,10,45,23.80
2014,08,17,10,46,23.80
2014,08,17,10,47,23.80
2014,08,17,10,48,23.70
2014,08,17,10,49,23.80
2014,08,17,10,50,23.80
2014,08,17,10,51,23.80
2014,08,17,10,52,23.90
2014,08,17,10,53,24.00
2014,08,17,10,54,24.10
2014,08,17,10,55,24.20
2014,08,17,10,56,24.30
2014,08,17,10,57,24.40
2014,08,17,10,58,24.40
2014,08,17,10,59,24.30
2014,08,17,11,00,24.20
2014,08,17,11,01,24.20
2014,08,17,11,02,24.10
2014,08,17,11,03,24.10
2014,08,17,11,04,24.10
2014,08,17,11,05,24.00
2014,08,17,11,06,24.00
2014,08,17,11,07,24.00
2014,08,17,11,08,24.00
2014,08,17,11,09,24.00
2014,08,17,11,10,24.00
2014,08,17,11,11,24.10
2014,08,17,11,12,24.10
2014,08,17,11,13,24.20
2014,08,17,11,14,24.20
2014,08,17,11,15,24.20
2014,08,17,11,16,24.30
2014,08,17,11,17,24.30
2014,08,17,11,18,24.30
2014,08,17,11,19,24.40
2014,08,17,11,20,24.50
2014,08,17,11,21,24.60
2014,08,17,11,22,24.70
2014,08,17,11,23,24.80
2014,08,17,11,24,24.90
2014,08,17,11,25,25.00
2014,08,17,11,26,25.00
2014,08,17,11,27,25.10
2014,08,17,11,28,25.10
2014,08,17,11,29,25.10
2014,08,17,11,30,25.10
2014,08,17,11,31,25.20
2014,08,17,11,32,25.20
2014,08,17,11,33,25.20
2014,08,17,11,34,25.10
2014,08,17,11,35,25.00
2014,08,17,11,36,24.90
2014,08,17,11,37,24.90
2014,08,17,11,38,24.80
2014,08,17,11,39,24.80
2014,08,17,11,40,24.70
2014,08,17,11,41,24.60
2014,08,17,11,42,24.60
2014,08,17,11,43,24.60
2014,08,17,11,44,24.60
2014,08,17,11,45,24.60
2014,08,17,11,46,24.60
2014,08,17,11,47,24.60
2014,08,17,11,48,24.50
2014,08,17,11,49,24.40
2014,08,17,11,50,24.30
2014,08,17,11,51,24.30
2014,08,17,11,52,24.30
2014,08,17,11,53,24.30
2014,08,17,11,54,24.40
2014,08,17,11,55,24.40
2014,08,17,11,56,24.40
2014,08,17,11,57,24.40
2014,08,17,11,58,24.40
2014,08,17,11,59,24.30
2014,08,17,12,00,24.30
2014,08,17,12,01,24.30
2014,08,17,12,02,24.30
2014,08,17,12,03,24.40
2014,08,17,12,04,24.50
2014,08,17,12,05,24.50
2014,08,17,12,06,24.60
2014,08,17,12,07,24.70
2014,08,17,12,08,24.80
2014,08,17,12,09,24.90
2014,08,17,12,10,24.90
2014,08,17,12,11,24.90
2014,08,17,12,12,24.90
2014,08,17,12,13,24.90
2014,08,17,12,14,24.80
2014,08,17,12,15,24.80
2014,08,17,12,16,24.80
2014,08,17,12,17,24.80
2014,08,17,12,18,24.80
2014,08,17,12,19,24.80
2014,08,17,12,20,24.70
2014,08,17,12,21,24.60
2014,08,17,12,22,24.40
2014,08,17,12,23,24.30
2014,08,17,12,24,24.30
2014,08,17,12,25,24.30
2014,08,17,12,26,24.40
2014,08,17,12,27,24.40
2014,08,17,12,28,24.40
2014,08,17,12,29,24.40
2014,08,17,12,30,24.40
2014,08,17,12,31,24.40
2014,08,17,12,32,24.50
2014,08,17,12,33,24.60
2014,08,17,12,34,24.50
2014,08,17,12,35,24.40
2014,08,17,12,36,24.40
2014,08,17,12,37,24.50
2014,08,17,12,38,24.60
2014,08,17,12,39,24.70
2014,08,17,12,40,24.80
2014,08,17,12,41,24.80
2014,08,17,12,42,24.90
2014,08,17,12,43,24.90
2014,08,17,12,44,24.80
2014,08,17,12,45,24.70
2014,08,17,12,46,24.60
2014,08,17,12,47,24.40
2014,08,17,12,48,24.30
2014,08,17,12,49,24.20
2014,08,17,12,50,24.20
2014,08,17,12,51,24.30
2014,08,17,12,52,24.40
2014,08,17,12,53,24.40
2014,08,17,12,54,24.40
2014,08,17,12,55,24.40
2014,08,17,12,56,24.50
2014,08,17,12,57,24.50
2014,08,17,12,58,24.60
2014,08,17,12,59,24.60
2014,08,17,13,00,24.60
2014,08,17,13,01,24.50
2014,08,17,13,02,24.40
2014,08,17,13,03,24.30
2014,08,17,13,04,24.20
2014,08,17,13,05,24.10
2014,08,17,13,06,23.90
2014,08,17,13,07,23.70
2014,08,17,13,08,23.50
2014,08,17,13,09,23.40
2014,08,17,13,10,23.20
2014,08,17,13,11,23.10
2014,08,17,13,12,23.00
2014,08,17,13,13,23.00
2014,08,17,13,14,23.10
2014,08,17,13,15,23.00
2014,08,17,13,16,23.00
2014,08,17,13,17,22.90
2014,08,17,13,18,22.90
2014,08,17,13,19,23.00
2014,08,17,13,20,23.00
2014,08,17,13,21,23.10
2014,08,17,13,22,23.20
2014,08,17,13,23,23.20
2014,08,17,13,24,23.30
2014,08,17,13,25,23.40
2014,08,17,13,26,23.40
2014,08,17,13,27,23.40
2014,08,17,13,28,23.40
2014,08,17,13,29,23.30
2014,08,17,13,30,23.20
2014,08,17,13,31,23.10
2014,08,17,13,32,23.10
2014,08,17,13,33,23.10
2014,08,17,13,34,23.00
2014,08,17,13,35,22.90
2014,08,17,13,36,22.90
2014,08,17,13,37,22.80
2014,08,17,13,38,22.80
2014,08,17,13,39,22.80
2014,08,17,13,40,22.80
2014,08,17,13,41,22.60
2014,08,17,13,42,22.50
2014,08,17,13,43,22.30
2014,08,17,13,44,22.20
2014,08,17,13,45,22.00
2014,08,17,13,46,21.90
2014,08,17,13,47,21.70
2014,08,17,13,48,21.60
2014,08,17,13,49,21.50
2014,08,17,13,50,21.40
2014,08,17,13,51,21.30
2014,08,17,13,52,21.10
2014,08,17,13,53,21.00
2014,08,17,13,54,20.90
2014,08,17,13,55,20.80
2014,08,17,13,56,20.70
2014,08,17,13,57,20.70
2014,08,17,13,58,20.70
2014,08,17,13,59,20.70
2014,08,17,14,00,20.60
2014,08,17,14,01,20.60
2014,08,17,14,02,20.50
2014,08,17,14,03,20.40
2014,08,17,14,04,20.40
2014,08,17,14,05,20.50
2014,08,17,14,06,20.60
2014,08,17,14,07,20.60
2014,08,17,14,08,20.60
2014,08,17,14,09,20.70
2014,08,17,14,10,20.70
2014,08,17,14,11,20.60
2014,08,17,14,12,20.50
2014,08,17,14,13,20.40
2014,08,17,14,14,20.30
2014,08,17,14,15,20.30
2014,08,17,14,16,20.40
2014,08,17,14,17,20.50
2014,08,17,14,18,20.70
2014,08,17,14,19,20.80
2014,08,17,14,20,20.80
2014,08,17,14,21,20.90
2014,08,17,14,22,20.90
2014,08,17,14,23,20.70
2014,08,17,14,24,20.60
2014,08,17,14,25,20.40
2014,08,17,14,26,20.30
2014,08,17,14,27,20.30
2014,08,17,14,28,20.20
2014,08,17,14,29,20.20
2014,08,17,14,30,20.30
2014,08,17,14,31,20.40
2014,08,17,14,32,20.60
2014,08,17,14,33,20.60
2014,08,17,14,34,20.60
2014,08,17,14,35,20.50
2014,08,17,14,36,20.40
2014,08,17,14,37,20.40
2014,08,17,14,38,20.40
2014,08,17,14,39,20.50
2014,08,17,14,40,20.40
2014,08,17,14,41,20.40
2014,08,17,14,42,20.40
2014,08,17,14,43,20.40
2014,08,17,14,44,20.50
2014,08,17,14,45,20.50
2014,08,17,14,46,20.70
2014,08,17,14,47,20.80
2014,08,17,14,48,20.80
2014,08,17,14,49,20.80
2014,08,17,14,50,20.80
2014,08,17,14,51,20.80
2014,08,17,14,52,20.80
2014,08,17,14,53,20.80
2014,08,17,14,54,20.90
2014,08,17,14,55,20.90
2014,08,17,14,56,20.90
2014,08,17,14,57,20.80
2014,08,17,14,58,20.80
2014,08,17,14,59,20.80
2014,08,17,15,00,20.80
2014,08,17,15,01,20.80
2014,08,17,15,02,20.70
2014,08,17,15,03,20.70
2014,08,17,15,04,20.70
2014,08,17,15,05,20.70
2014,08,17,15,06,20.80
2014,08,17,15,07,20.80
2014,08,17,15,08,20.80
2014,08,17,15,09,20.80
2014,08,17,15,10,20.90
2014,08,17,15,11,20.90
2014,08,17,15,12,21.00
2014,08,17,15,13,21.00
2014,08,17,15,14,21.00
2014,08,17,15,15,21.00
2014,08,17,15,16,21.00
2014,08,17,15,17,21.00
2014,08,17,15,18,21.00
2014,08,17,15,19,21.10
2014,08,17,15,20,21.10
2014,08,17,15,21,21.10
2014,08,17,15,22,21.00
2014,08,17,15,23,21.00
2014,08,17,15,24,21.00
2014,08,17,15,25,21.10
2014,08,17,15,26,21.10
2014,08,17,15,27,21.10
2014,08,17,15,28,21.00
2014,08,17,15,29,21.00
2014,08,17,15,30,21.10
2014,08,17,15,31,21.00
2014,08,17,15,32,21.00
2014,08,17,15,33,21.10
2014,08,17,15,34,21.10
2014,08,17,15,35,21.10
2014,08,17,15,36,21.20
2014,08,17,15,37,21.10
2014,08,17,15,38,21.00
2014,08,17,15,39,20.90
2014,08,17,15,40,20.90
2014,08,17,15,41,20.90
2014,08,17,15,42,20.90
2014,08,17,15,43,21.00
2014,08,17,15,44,21.10
2014,08,17,15,45,21.20
2014,08,17,15,46,21.30
2014,08,17,15,47,21.40
2014,08,17,15,48,21.40
2014,08,17,15,49,21.50
2014,08,17,15,50,21.40
2014,08,17,15,51,21.50
2014,08,17,15,52,21.60
2014,08,17,15,53,21.70
2014,08,17,15,54,21.70
2014,08,17,15,55,21.70
2014,08,17,15,56,21.60
2014,08,17,15,57,21.60
2014,08,17,15,58,21.60
2014,08,17,15,59,21.50
2014,08,17,16,00,21.60
2014,08,17,16,01,21.70
2014,08,17,16,02,21.70
2014,08,17,16,03,21.70
2014,08,17,16,04,21.60
2014,08,17,16,05,21.60
2014,08,17,16,06,21.60
2014,08,17,16,07,21.70
2014,08,17,16,08,21.70
2014,08,17,16,09,21.70
2014,08,17,16,10,21.70
2014,08,17,16,11,21.70
2014,08,17,16,12,21.70
2014,08,17,16,13,21.70
2014,08,17,16,14,21.70
2014,08,17,16,15,21.80
2014,08,17,16,16,21.80
2014,08,17,16,17,21.80
2014,08,17,16,18,21.90
2014,08,17,16,19,21.90
2014,08,17,16,20,22.00
2014,08,17,16,21,22.10
2014,08,17,16,22,22.10
2014,08,17,16,23,22.10
2014,08,17,16,24,22.10
2014,08,17,16,25,22.00
2014,08,17,16,26,21.90
2014,08,17,16,27,21.90
2014,08,17,16,28,21.90
2014,08,17,16,29,21.90
2014,08,17,16,30,21.90
2014,08,17,16,31,21.80
2014,08,17,16,32,21.80
2014,08,17,16,33,21.80
2014,08,17,16,34,21.80
2014,08,17,16,35,21.80
2014,08,17,16,36,21.90
2014,08,17,16,37,21.90
2014,08,17,16,38,22.00
2014,08,17,16,39,22.10
2014,08,17,16,40,22.10
2014,08,17,16,41,22.20
2014,08,17,16,42,22.30
2014,08,17,16,43,22.30
2014,08,17,16,44,22.30
2014,08,17,16,45,22.20
2014,08,17,16,46,22.20
2014,08,17,16,47,22.30
2014,08,17,16,48,22.30
2014,08,17,16,49,22.30
2014,08,17,16,50,22.30
2014,08,17,16,51,22.30
2014,08,17,16,52,22.30
2014,08,17,16,53,22.40
2014,08,17,16,54,22.40
2014,08,17,16,55,22.30
2014,08,17,16,56,22.30
2014,08,17,16,57,22.30
2014,08,17,16,58,22.20
2014,08,17,16,59,22.20
2014,08,17,17,00,22.20
2014,08,17,17,01,22.20
2014,08,17,17,02,22.20
2014,08,17,17,03,22.30
2014,08,17,17,04,22.30
2014,08,17,17,05,22.40
2014,08,17,17,06,22.40
2014,08,17,17,07,22.40
2014,08,17,17,08,22.40
2014,08,17,17,09,22.40
2014,08,17,17,10,22.50
2014,08,17,17,11,22.50
2014,08,17,17,12,22.50
2014,08,17,17,13,22.50
2014,08,17,17,14,22.50
2014,08,17,17,15,22.60
2014,08,17,17,16,22.60
2014,08,17,17,17,22.60
2014,08,17,17,18,22.60
2014,08,17,17,19,22.60